QPF
0.00 0.00 0.00 0.00 0.00 0.00 0.00 0.00 0.00 0.01 0.00 0.00 0.01 0.00 0.00 0.01 0.01 0.02 0.01 0.01 0.01 0.00 0.01 0.02 0.01 0.01 0.01 0.01 0.01 0.01 0.01 0.01 0.02 0.02 0.03 0.03 0.03 0.03 0.04 0.04 0.04 0.03 0.04 0.05 0.07 0.09 0.12 0.16 0.13
0.00 0.00 0.00 0.00 0.00 0.00 0.00 0.00 0.00 0.00 0.00 0.00 0.00 0.00 0.00 0.01 0.01 0.00 0.01 0.01 0.01 0.01 0.01 0.01 0.00 0.01 0.01 0.01 0.00 0.00 0.01 0.01 0.03 0.03 0.02 0.03 0.03 0.02 0.03 0.03 0.03 0.03 0.04 0.05 0.07 0.08 0.08 0.08 0.09
0.00 0.00 0.00 0.00 0.00 0.00 0.00 0.00 0.00 0.00 0.00 0.00 0.00 0.00 0.00 0.01 0.01 0.00 0.01 0.01 0.01 0.01 0.01 0.01 0.00 0.01 0.01 0.01 0.01 0.00 0.01 0.02 0.02 0.03 0.03 0.03 0.03 0.02 0.02 0.03 0.03 0.03 0.04 0.09 0.14 0.10 0.08 0.07 0.09
0.00 0.00 0.00 0.00 0.00 0.00 0.00 0.00 0.00 0.00 0.00 0.00 0.00 0.00 0.00 0.00 0.00 0.00 0.00 0.00 0.00 0.01 0.01 0.01 0.01 0.01 0.01 0.01 0.01 0.01 0.01 0.01 0.01 0.02 0.04 0.05 0.04 0.04 0.03 0.03 0.03 0.03 0.04 0.08 0.14 0.13 0.11 0.10 0.11
0.00 0.00 0.00 0.00 0.00 0.00 0.00 0.00 0.00 0.00 0.00 0.00 0.00 0.00 0.00 0.00 0.00 0.00 0.00 0.00 0.00 0.00 0.01 0.01 0.01 0.01 0.01 0.01 0.01 0.02 0.03 0.02 0.01 0.03 0.05 0.06 0.04 0.05 0.05 0.04 0.03 0.03 0.03 0.05 0.06 0.09 0.13 0.13 0.11
0.00 0.00 0.00 0.00 0.00 0.00 0.00 0.00 0.00 0.00 0.00 0.00 0.00 0.00 0.00 0.00 0.00 0.00 0.00 0.00 0.00 0.00 0.01 0.01 0.01 0.01 0.01 0.01 0.02 0.03 0.03 0.04 0.03 0.03 0.03 0.02 0.03 0.08 0.14 0.13 0.08 0.03 0.03 0.04 0.05 0.07 0.09 0.11 0.10
0.00 0.00 0.00 0.00 0.00 0.00 0.00 0.00 0.00 0.00 0.00 0.00 0.00 0.00 0.00 0.00 0.00 0.00 0.00 0.00 0.00 0.00 0.00 0.01 0.01 0.01 0.02 0.02 0.02 0.03 0.03 0.03 0.03 0.02 0.02 0.03 0.05 0.11 0.18 0.12 0.11 0.07 0.05 0.04 0.06 0.06 0.08 0.10 0.10
0.00 0.00 0.00 0.00 0.00 0.00 0.00 0.00 0.01 0.00 0.00 0.00 0.00 0.00 0.00 0.00 0.00 0.00 0.00 0.00 0.00 0.00 0.00 0.00 0.01 0.01 0.02 0.02 0.02 0.03 0.03 0.03 0.03 0.03 0.03 0.04 0.06 0.10 0.17 0.09 0.08 0.06 0.05 0.05 0.06 0.06 0.07 0.09 0.09
0.00 0.00 0.00 0.00 0.00 0.00 0.00 0.00 0.00 0.00 0.00 0.00 0.00 0.00 0.00 0.00 0.00 0.00 0.00 0.00 0.00 0.00 0.00 0.00 0.00 0.01 0.01 0.01 0.02 0.02 0.03 0.03 0.04 0.04 0.02 0.03 0.06 0.08 0.10 0.10 0.07 0.05 0.05 0.05 0.06 0.06 0.07 0.09 0.08
0.00 0.00 0.00 0.00 0.00 0.00 0.00 0.00 0.00 0.00 0.00 0.00 0.00 0.00 0.00 0.00 0.00 0.00 0.00 0.00 0.00 0.00 0.00 0.00 0.00 0.01 0.01 0.01 0.02 0.02 0.03 0.04 0.04 0.04 0.04 0.05 0.05 0.06 0.07 0.08 0.06 0.06 0.06 0.05 0.06 0.06 0.07 0.08 0.07
0.00 0.00 0.00 0.00 0.00 0.00 0.00 0.00 0.00 0.00 0.00 0.00 0.00 0.00 0.00 0.00 0.01 0.01 0.01 0.01 0.01 0.00 0.00 0.00 0.00 0.01 0.01 0.01 0.01 0.03 0.04 0.05 0.05 0.04 0.05 0.06 0.05 0.06 0.05 0.06 0.05 0.06 0.06 0.07 0.08 0.09 0.09 0.08 0.07
0.00 0.00 0.00 0.00 0.00 0.00 0.00 0.00 0.00 0.00 0.00 0.00 0.00 0.00 0.00 0.01 0.01 0.01 0.01 0.02 0.01 0.01 0.01 0.01 0.01 0.01 0.01 0.01 0.01 0.02 0.04 0.04 0.04 0.05 0.05 0.04 0.05 0.06 0.04 0.04 0.04 0.05 0.06 0.07 0.07 0.09 0.09 0.07 0.06
0.00 0.00 0.00 0.00 0.00 0.00 0.00 0.00 0.00 0.00 0.00 0.00 0.00 0.00 0.01 0.02 0.02 0.01 0.00 0.01 0.01 0.01 0.01 0.01 0.01 0.01 0.01 0.01 0.02 0.02 0.03 0.04 0.04 0.04 0.04 0.04 0.04 0.04 0.04 0.04 0.05 0.05 0.05 0.06 0.07 0.07 0.08 0.07 0.05
0.00 0.00 0.00 0.00 0.00 0.00 0.00 0.00 0.00 0.00 0.00 0.00 0.00 0.01 0.01 0.01 0.01 0.01 0.00 0.00 0.00 0.01 0.01 0.01 0.01 0.01 0.02 0.02 0.02 0.02 0.03 0.03 0.03 0.03 0.03 0.03 0.04 0.04 0.05 0.03 0.05 0.05 0.05 0.06 0.07 0.07 0.08 0.07 0.06
0.00 0.00 0.00 0.00 0.00 0.00 0.00 0.00 0.00 0.01 0.01 0.01 0.01 0.01 0.00 0.01 0.01 0.02 0.01 0.01 0.00 0.00 0.00 0.01 0.01 0.02 0.02 0.02 0.02 0.02 0.02 0.02 0.02 0.02 0.03 0.03 0.04 0.04 0.03 0.03 0.04 0.05 0.06 0.05 0.06 0.07 0.08 0.08 0.08
0.00 0.00 0.00 0.00 0.00 0.00 0.00 0.00 0.00 0.00 0.01 0.01 0.01 0.01 0.01 0.01 0.01 0.01 0.01 0.01 0.00 0.00 0.00 0.01 0.01 0.02 0.01 0.01 0.01 0.01 0.01 0.01 0.02 0.03 0.03 0.04 0.04 0.03 0.02 0.04 0.05 0.06 0.07 0.07 0.07 0.08 0.08 0.10 0.11
0.00 0.00 0.00 0.00 0.00 0.00 0.01 0.00 0.00 0.00 0.01 0.01 0.01 0.00 0.00 0.01 0.00 0.01 0.01 0.01 0.01 0.00 0.00 0.00 0.01 0.02 0.02 0.01 0.01 0.02 0.02 0.02 0.02 0.02 0.03 0.04 0.03 0.03 0.04 0.05 0.05 0.04 0.05 0.06 0.05 0.04 0.06 0.07 0.07
0.00 0.00 0.00 0.00 0.00 0.01 0.01 0.01 0.01 0.01 0.01 0.01 0.01 0.01 0.01 0.01 0.02 0.01 0.01 0.00 0.01 0.00 0.00 0.00 0.01 0.03 0.03 0.02 0.02 0.02 0.01 0.02 0.02 0.02 0.02 0.03 0.03 0.03 0.04 0.05 0.05 0.04 0.05 0.05 0.04 0.04 0.05 0.05 0.05
0.00 0.00 0.00 0.00 0.00 0.00 0.00 0.01 0.01 0.01 0.01 0.01 0.01 0.01 0.01 0.02 0.02 0.01 0.01 0.00 0.00 0.00 0.00 0.00 0.01 0.01 0.02 0.02 0.02 0.02 0.02 0.02 0.02 0.02 0.02 0.03 0.04 0.03 0.04 0.05 0.06 0.04 0.04 0.05 0.03 0.04 0.05 0.05 0.04
0.00 0.00 0.00 0.00 0.00 0.00 0.00 0.00 0.00 0.01 0.01 0.01 0.00 0.01 0.01 0.01 0.02 0.01 0.01 0.01 0.00 0.00 0.01 0.01 0.01 0.01 0.01 0.01 0.03 0.03 0.04 0.04 0.03 0.03 0.03 0.03 0.03 0.03 0.03 0.05 0.06 0.04 0.04 0.04 0.04 0.04 0.05 0.06 0.04
0.00 0.00 0.00 0.00 0.00 0.00 0.00 0.00 0.00 0.00 0.00 0.00 0.00 0.00 0.00 0.01 0.01 0.01 0.01 0.01 0.00 0.00 0.00 0.01 0.02 0.02 0.01 0.02 0.02 0.03 0.04 0.04 0.03 0.03 0.03 0.03 0.03 0.03 0.04 0.04 0.06 0.05 0.04 0.03 0.03 0.04 0.07 0.08 0.06
0.00 0.00 0.00 0.00 0.00 0.00 0.00 0.00 0.00 0.01 0.01 0.01 0.01 0.01 0.01 0.01 0.01 0.01 0.01 0.01 0.01 0.01 0.00 0.01 0.01 0.01 0.01 0.01 0.02 0.02 0.02 0.02 0.02 0.02 0.02 0.02 0.02 0.04 0.05 0.05 0.07 0.09 0.06 0.04 0.04 0.03 0.06 0.08 0.07
0.00 0.00 0.00 0.00 0.00 0.00 0.00 0.00 0.01 0.01 0.01 0.02 0.02 0.02 0.01 0.01 0.01 0.01 0.01 0.01 0.01 0.01 0.01 0.01 0.01 0.01 0.01 0.01 0.01 0.02 0.01 0.01 0.01 0.02 0.03 0.03 0.03 0.03 0.04 0.05 0.06 0.08 0.07 0.06 0.05 0.04 0.04 0.04 0.06
0.00 0.00 0.00 0.00 0.00 0.00 0.00 0.00 0.01 0.01 0.01 0.01 0.01 0.01 0.01 0.02 0.01 0.01 0.01 0.01 0.01 0.01 0.01 0.01 0.01 0.01 0.01 0.01 0.01 0.01 0.01 0.01 0.01 0.03 0.04 0.05 0.04 0.03 0.02 0.04 0.05 0.06 0.07 0.07 0.06 0.06 0.04 0.03 0.05
0.00 0.00 0.00 0.00 0.00 0.00 0.00 0.00 0.00 0.00 0.00 0.00 0.01 0.01 0.01 0.01 0.01 0.01 0.01 0.01 0.01 0.01 0.00 0.01 0.01 0.01 0.01 0.01 0.01 0.01 0.02 0.02 0.02 0.03 0.04 0.05 0.04 0.03 0.03 0.03 0.05 0.08 0.09 0.09 0.08 0.08 0.06 0.04 0.05
0.00 0.00 0.00 0.00 0.00 0.00 0.00 0.00 0.00 0.00 0.00 0.00 0.00 0.00 0.00 0.00 0.00 0.00 0.00 0.01 0.01 0.00 0.00 0.01 0.01 0.00 0.01 0.01 0.02 0.02 0.02 0.02 0.02 0.03 0.03 0.03 0.03 0.03 0.04 0.04 0.04 0.05 0.08 0.10 0.09 0.08 0.08 0.05 0.04
0.00 0.00 0.00 0.00 0.00 0.00 0.00 0.00 0.00 0.00 0.00 0.00 0.00 0.00 0.00 0.00 0.00 0.00 0.00 0.00 0.01 0.00 0.00 0.01 0.01 0.01 0.01 0.02 0.02 0.02 0.02 0.02 0.02 0.03 0.02 0.03 0.02 0.02 0.03 0.02 0.02 0.04 0.07 0.10 0.11 0.09 0.09 0.07 0.05
0.00 0.00 0.00 0.00 0.00 0.00 0.00 0.00 0.00 0.00 0.00 0.00 0.00 0.00 0.00 0.00 0.00 0.00 0.00 0.01 0.01 0.01 0.01 0.01 0.02 0.01 0.02 0.02 0.01 0.02 0.03 0.04 0.03 0.04 0.03 0.02 0.02 0.03 0.03 0.03 0.03 0.03 0.05 0.07 0.09 0.10 0.09 0.06 0.04
0.00 0.00 0.00 0.00 0.00 0.00 0.00 0.00 0.00 0.00 0.00 0.00 0.00 0.00 0.00 0.00 0.00 0.00 0.01 0.01 0.01 0.01 0.01 0.02 0.03 0.03 0.02 0.02 0.03 0.04 0.05 0.06 0.05 0.04 0.02 0.01 0.01 0.02 0.02 0.03 0.04 0.04 0.05 0.06 0.07 0.09 0.07 0.06 0.04
0.00 0.00 0.00 0.00 0.00 0.00 0.00 0.00 0.00 0.00 0.00 0.00 0.00 0.00 0.00 0.00 0.01 0.01 0.01 0.01 0.01 0.01 0.01 0.02 0.03 0.03 0.03 0.03 0.04 0.06 0.07 0.06 0.04 0.02 0.01 0.01 0.01 0.01 0.01 0.03 0.03 0.03 0.04 0.05 0.04 0.05 0.05 0.04 0.04
MSLP
1009.36 1009.71 1010.18 1010.67 1011.11 1011.41 1011.51 1011.43 1011.20 1010.91 1010.68 1010.58 1010.66 1010.93 1011.33 1011.78 1012.19 1012.47 1012.59 1012.55 1012.43 1012.30 1012.23 1012.30 1012.52 1012.88 1013.32 1013.78 1014.20 1014.54 1014.81 1015.02 1015.22 1015.44 1015.69 1015.97 1016.26 1016.51 1016.69 1016.78 1016.81 1016.81 1016.82 1016.87 1016.99 1017.18 1017.39 1017.58 1017.70
1009.31 1009.71 1010.21 1010.73 1011.17 1011.43 1011.48 1011.32 1011.00 1010.61 1010.28 1010.09 1010.11 1010.33 1010.71 1011.17 1011.62 1011.95 1012.15 1012.20 1012.17 1012.12 1012.13 1012.27 1012.55 1012.96 1013.44 1013.93 1014.39 1014.77 1015.07 1015.32 1015.55 1015.78 1016.04 1016.31 1016.57 1016.79 1016.93 1017.00 1017.00 1016.99 1016.99 1017.06 1017.20 1017.41 1017.64 1017.83 1017.96
1009.35 1009.79 1010.32 1010.84 1011.26 1011.49 1011.50 1011.28 1010.90 1010.45 1010.05 1009.80 1009.76 1009.93 1010.27 1010.71 1011.15 1011.50 1011.73 1011.83 1011.86 1011.88 1011.96 1012.17 1012.52 1012.99 1013.52 1014.07 1014.57 1014.99 1015.33 1015.61 1015.85 1016.09 1016.34 1016.59 1016.83 1017.02 1017.14 1017.19 1017.19 1017.18 1017.20 1017.29 1017.45 1017.67 1017.90 1018.10 1018.21
1009.53 1009.98 1010.51 1011.01 1011.40 1011.60 1011.57 1011.32 1010.90 1010.42 1009.99 1009.70 1009.61 1009.74 1010.04 1010.43 1010.83 1011.16 1011.38 1011.50 1011.56 1011.63 1011.78 1012.05 1012.47 1013.00 1013.60 1014.20 1014.74 1015.20 1015.56 1015.85 1016.09 1016.32 1016.55 1016.79 1017.01 1017.18 1017.31 1017.37 1017.39 1017.41 1017.46 1017.56 1017.74 1017.96 1018.19 1018.37 1018.45
1009.83 1010.27 1010.77 1011.23 1011.57 1011.73 1011.66 1011.39 1010.96 1010.48 1010.04 1009.74 1009.63 1009.72 1009.97 1010.31 1010.66 1010.95 1011.15 1011.26 1011.34 1011.44 1011.64 1011.96 1012.44 1013.03 1013.68 1014.32 1014.90 1015.37 1015.74 1016.02 1016.25 1016.46 1016.67 1016.89 1017.10 1017.28 1017.42 1017.52 1017.59 1017.65 1017.74 1017.88 1018.07 1018.28 1018.49 1018.63 1018.68
1010.22 1010.63 1011.06 1011.45 1011.73 1011.83 1011.73 1011.44 1011.02 1010.56 1010.14 1009.85 1009.74 1009.81 1010.02 1010.31 1010.61 1010.86 1011.02 1011.13 1011.21 1011.34 1011.57 1011.94 1012.46 1013.09 1013.77 1014.43 1015.02 1015.50 1015.86 1016.12 1016.32 1016.50 1016.69 1016.89 1017.10 1017.31 1017.49 1017.64 1017.77 1017.89 1018.02 1018.19 1018.38 1018.58 1018.75 1018.86 1018.87
1010.63 1010.97 1011.32 1011.63 1011.83 1011.87 1011.73 1011.43 1011.03 1010.59 1010.21 1009.95 1009.86 1009.93 1010.13 1010.39 1010.66 1010.87 1011.02 1011.11 1011.19 1011.33 1011.58 1011.98 1012.52 1013.16 1013.85 1014.52 1015.10 1015.57 1015.91 1016.15 1016.32 1016.47 1016.64 1016.83 1017.06 1017.29 1017.51 1017.72 1017.91 1018.08 1018.26 1018.44 1018.63 1018.81 1018.94 1019.01 1018.98
1010.97 1011.24 1011.51 1011.72 1011.84 1011.82 1011.65 1011.35 1010.97 1010.57 1010.24 1010.02 1009.96 1010.05 1010.26 1010.52 1010.77 1010.98 1011.11 1011.20 1011.29 1011.43 1011.69 1012.08 1012.61 1013.24 1013.92 1014.56 1015.13 1015.57 1015.89 1016.11 1016.26 1016.40 1016.56 1016.75 1016.98 1017.24 1017.50 1017.75 1017.99 1018.21 1018.41 1018.61 1018.79 1018.94 1019.04 1019.07 1019.02
1011.19 1011.39 1011.57 1011.71 1011.76 1011.70 1011.52 1011.23 1010.88 1010.54 1010.25 1010.09 1010.07 1010.19 1010.42 1010.69 1010.96 1011.17 1011.31 1011.40 1011.49 1011.62 1011.85 1012.21 1012.70 1013.29 1013.92 1014.53 1015.07 1015.50 1015.81 1016.02 1016.17 1016.31 1016.47 1016.67 1016.91 1017.18 1017.47 1017.74 1018.01 1018.25 1018.47 1018.66 1018.83 1018.96 1019.04 1019.05 1018.98
1011.27 1011.41 1011.54 1011.63 1011.65 1011.59 1011.42 1011.17 1010.87 1010.58 1010.35 1010.24 1010.26 1010.41 1010.66 1010.95 1011.23 1011.46 1011.61 1011.70 1011.77 1011.87 1012.05 1012.35 1012.77 1013.28 1013.85 1014.41 1014.91 1015.32 1015.64 1015.87 1016.05 1016.21 1016.39 1016.60 1016.85 1017.13 1017.42 1017.70 1017.97 1018.21 1018.43 1018.62 1018.78 1018.90 1018.97 1018.97 1018.92
1011.22 1011.34 1011.45 1011.54 1011.59 1011.56 1011.45 1011.27 1011.04 1010.81 1010.64 1010.57 1010.62 1010.80 1011.06 1011.36 1011.64 1011.87 1012.02 1012.09 1012.13 1012.17 1012.28 1012.48 1012.79 1013.20 1013.67 1014.16 1014.63 1015.04 1015.37 1015.65 1015.87 1016.09 1016.31 1016.55 1016.81 1017.08 1017.36 1017.63 1017.88 1018.11 1018.32 1018.50 1018.66 1018.79 1018.87 1018.89 1018.87
1011.11 1011.24 1011.38 1011.53 1011.65 1011.71 1011.71 1011.63 1011.49 1011.34 1011.23 1011.19 1011.25 1011.42 1011.67 1011.95 1012.22 1012.42 1012.54 1012.58 1012.55 1012.52 1012.51 1012.59 1012.76 1013.04 1013.40 1013.81 1014.24 1014.64 1015.01 1015.34 1015.64 1015.92 1016.19 1016.47 1016.75 1017.02 1017.28 1017.53 1017.76 1017.97 1018.17 1018.36 1018.53 1018.68 1018.79 1018.86 1018.87
1011.02 1011.19 1011.40 1011.66 1011.91 1012.11 1012.25 1012.31 1012.29 1012.22 1012.15 1012.13 1012.18 1012.32 1012.52 1012.75 1012.96 1013.12 1013.18 1013.15 1013.04 1012.90 1012.77 1012.70 1012.72 1012.85 1013.08 1013.39 1013.76 1014.15 1014.55 1014.94 1015.31 1015.67 1016.01 1016.33 1016.63 1016.91 1017.16 1017.39 1017.60 1017.80 1018.00 1018.21 1018.42 1018.61 1018.78 1018.90 1018.96
1011.01 1011.25 1011.58 1011.97 1012.38 1012.76 1013.08 1013.29 1013.40 1013.42 1013.40 1013.38 1013.39 1013.46 1013.59 1013.73 1013.86 1013.93 1013.91 1013.80 1013.59 1013.33 1013.07 1012.84 1012.70 1012.67 1012.76 1012.97 1013.26 1013.63 1014.04 1014.47 1014.90 1015.32 1015.73 1016.10 1016.43 1016.72 1016.97 1017.19 1017.40 1017.61 1017.83 1018.07 1018.33 1018.59 1018.83 1019.02 1019.14
1011.15 1011.46 1011.91 1012.44 1013.03 1013.60 1014.09 1014.47 1014.71 1014.82 1014.84 1014.81 1014.77 1014.76 1014.78 1014.81 1014.83 1014.80 1014.69 1014.49 1014.19 1013.82 1013.43 1013.07 1012.78 1012.60 1012.55 1012.62 1012.83 1013.13 1013.52 1013.96 1014.42 1014.88 1015.33 1015.73 1016.09 1016.40 1016.67 1016.91 1017.14 1017.37 1017.64 1017.93 1018.26 1018.59 1018.91 1019.17 1019.36
1011.42 1011.81 1012.35 1013.02 1013.76 1014.50 1015.16 1015.69 1016.05 1016.24 1016.30 1016.25 1016.16 1016.06 1015.97 1015.89 1015.80 1015.67 1015.47 1015.18 1014.81 1014.37 1013.89 1013.42 1013.00 1012.69 1012.50 1012.45 1012.54 1012.76 1013.08 1013.47 1013.92 1014.38 1014.83 1015.26 1015.63 1015.97 1016.26 1016.52 1016.79 1017.07 1017.40 1017.76 1018.16 1018.58 1018.97 1019.31 1019.55
1011.81 1012.24 1012.85 1013.61 1014.46 1015.33 1016.12 1016.77 1017.24 1017.51 1017.59 1017.54 1017.40 1017.22 1017.03 1016.84 1016.66 1016.44 1016.18 1015.85 1015.43 1014.95 1014.43 1013.90 1013.41 1012.99 1012.68 1012.51 1012.47 1012.56 1012.78 1013.08 1013.46 1013.87 1014.29 1014.69 1015.07 1015.42 1015.73 1016.04 1016.35 1016.70 1017.08 1017.52 1018.00 1018.49 1018.95 1019.35 1019.66
1012.26 1012.69 1013.32 1014.12 1015.03 1015.97 1016.85 1017.59 1018.13 1018.45 1018.57 1018.52 1018.35 1018.12 1017.86 1017.60 1017.34 1017.08 1016.78 1016.44 1016.03 1015.56 1015.05 1014.51 1013.98 1013.51 1013.11 1012.82 1012.64 1012.60 1012.67 1012.84 1013.09 1013.40 1013.74 1014.10 1014.45 1014.79 1015.12 1015.46 1015.83 1016.23 1016.68 1017.19 1017.72 1018.27 1018.80 1019.25 1019.60
1012.72 1013.12 1013.72 1014.50 1015.41 1016.36 1017.27 1018.05 1018.64 1019.01 1019.17 1019.13 1018.96 1018.71 1018.41 1018.11 1017.83 1017.54 1017.25 1016.93 1016.57 1016.15 1015.69 1015.19 1014.68 1014.18 1013.73 1013.34 1013.05 1012.85 1012.75 1012.76 1012.86 1013.03 1013.25 1013.52 1013.81 1014.13 1014.47 1014.83 1015.23 1015.68 1016.18 1016.74 1017.32 1017.91 1018.47 1018.96 1019.35
1013.16 1013.50 1014.03 1014.74 1015.59 1016.50 1017.38 1018.17 1018.79 1019.19 1019.39 1019.39 1019.25 1019.00 1018.71 1018.41 1018.12 1017.84 1017.58 1017.31 1017.01 1016.67 1016.29 1015.87 1015.40 1014.92 1014.45 1014.00 1013.60 1013.26 1013.00 1012.83 1012.75 1012.76 1012.85 1013.00 1013.22 1013.49 1013.80 1014.17 1014.59 1015.07 1015.60 1016.18 1016.79 1017.40 1017.97 1018.48 1018.89
1013.58 1013.83 1014.26 1014.87 1015.62 1016.45 1017.28 1018.04 1018.66 1019.09 1019.33 1019.38 1019.29 1019.09 1018.83 1018.55 1018.27 1018.02 1017.79 1017.57 1017.34 1017.09 1016.79 1016.45 1016.06 1015.63 1015.16 1014.67 1014.19 1013.75 1013.34 1013.01 1012.76 1012.60 1012.54 1012.57 1012.69 1012.89 1013.17 1013.52 1013.94 1014.43 1014.97 1015.55 1016.15 1016.75 1017.33 1017.84 1018.26
1013.98 1014.15 1014.48 1014.98 1015.61 1016.34 1017.09 1017.80 1018.40 1018.86 1019.14 1019.25 1019.22 1019.07 1018.86 1018.61 1018.36 1018.13 1017.93 1017.74 1017.55 1017.36 1017.14 1016.87 1016.55 1016.16 1015.72 1015.23 1014.71 1014.18 1013.67 1013.21 1012.81 1012.50 1012.30 1012.20 1012.22 1012.35 1012.57 1012.89 1013.29 1013.76 1014.29 1014.86 1015.44 1016.02 1016.58 1017.08 1017.50
1014.40 1014.51 1014.75 1015.13 1015.65 1016.27 1016.93 1017.59 1018.17 1018.63 1018.95 1019.12 1019.16 1019.08 1018.91 1018.70 1018.47 1018.24 1018.03 1017.84 1017.66 1017.49 1017.30 1017.08 1016.81 1016.47 1016.06 1015.59 1015.05 1014.48 1013.90 1013.34 1012.83 1012.40 1012.08 1011.87 1011.79 1011.84 1012.00 1012.28 1012.65 1013.09 1013.59 1014.14 1014.69 1015.25 1015.78 1016.26 1016.68
1014.87 1014.93 1015.11 1015.40 1015.82 1016.34 1016.91 1017.50 1018.05 1018.52 1018.87 1019.09 1019.19 1019.17 1019.05 1018.85 1018.62 1018.37 1018.12 1017.89 1017.68 1017.48 1017.29 1017.07 1016.82 1016.52 1016.14 1015.69 1015.16 1014.58 1013.97 1013.35 1012.77 1012.25 1011.83 1011.53 1011.37 1011.34 1011.44 1011.66 1011.99 1012.41 1012.88 1013.40 1013.93 1014.46 1014.96 1015.43 1015.84
1015.39 1015.44 1015.58 1015.81 1016.14 1016.57 1017.06 1017.58 1018.09 1018.55 1018.93 1019.19 1019.34 1019.36 1019.27 1019.09 1018.83 1018.54 1018.23 1017.92 1017.64 1017.37 1017.13 1016.88 1016.63 1016.33 1015.97 1015.55 1015.04 1014.47 1013.85 1013.21 1012.58 1012.01 1011.52 1011.15 1010.91 1010.81 1010.85 1011.03 1011.32 1011.70 1012.15 1012.65 1013.16 1013.67 1014.17 1014.62 1015.04
1015.96 1016.02 1016.13 1016.31 1016.58 1016.93 1017.35 1017.81 1018.28 1018.72 1019.11 1019.39 1019.57 1019.62 1019.55 1019.36 1019.07 1018.72 1018.34 1017.94 1017.56 1017.20 1016.88 1016.58 1016.29 1015.98 1015.63 1015.22 1014.74 1014.19 1013.58 1012.93 1012.28 1011.67 1011.13 1010.69 1010.39 1010.23 1010.21 1010.35 1010.60 1010.96 1011.40 1011.88 1012.39 1012.90 1013.39 1013.85 1014.27
1016.54 1016.60 1016.71 1016.86 1017.07 1017.36 1017.71 1018.11 1018.53 1018.95 1019.32 1019.62 1019.82 1019.88 1019.82 1019.62 1019.30 1018.90 1018.43 1017.95 1017.47 1017.02 1016.61 1016.24 1015.90 1015.56 1015.20 1014.80 1014.33 1013.79 1013.19 1012.55 1011.88 1011.24 1010.66 1010.18 1009.82 1009.60 1009.54 1009.63 1009.85 1010.19 1010.61 1011.09 1011.60 1012.12 1012.63 1013.10 1013.54
1017.06 1017.15 1017.24 1017.37 1017.55 1017.77 1018.06 1018.40 1018.78 1019.16 1019.51 1019.81 1020.00 1020.08 1020.01 1019.81 1019.47 1019.02 1018.50 1017.94 1017.38 1016.84 1016.36 1015.92 1015.52 1015.15 1014.77 1014.36 1013.89 1013.36 1012.76 1012.11 1011.43 1010.77 1010.15 1009.62 1009.21 1008.94 1008.83 1008.88 1009.07 1009.39 1009.80 1010.28 1010.81 1011.34 1011.86 1012.36 1012.83
1017.49 1017.59 1017.68 1017.79 1017.93 1018.11 1018.34 1018.63 1018.95 1019.29 1019.62 1019.89 1020.08 1020.15 1020.09 1019.88 1019.53 1019.06 1018.50 1017.90 1017.29 1016.70 1016.16 1015.67 1015.22 1014.81 1014.40 1013.96 1013.48 1012.94 1012.32 1011.66 1010.96 1010.27 1009.62 1009.05 1008.60 1008.29 1008.14 1008.15 1008.31 1008.61 1009.01 1009.48 1010.01 1010.55 1011.09 1011.62 1012.12
1017.81 1017.91 1018.00 1018.08 1018.19 1018.33 1018.52 1018.75 1019.03 1019.33 1019.62 1019.87 1020.05 1020.11 1020.05 1019.84 1019.49 1019.02 1018.46 1017.84 1017.21 1016.60 1016.02 1015.49 1015.00 1014.55 1014.10 1013.63 1013.11 1012.54 1011.90 1011.21 1010.49 1009.77 1009.09 1008.50 1008.01 1007.67 1007.49 1007.47 1007.60 1007.87 1008.25 1008.71 1009.23 1009.77 1010.32 1010.86 1011.38
Thickness
5816 5821 5825 5822 5817 5813 5801 5806 5813 5811 5812 5818 5818 5814 5809 5804 5798 5789 5808 5815 5812 5807 5799 5790 5785 5783 5781 5778 5776 5775 5774 5773 5772 5771 5770 5770 5770 5769 5769 5769 5769 5769 5770 5770 5769 5768 5768 5767 5765
5823 5824 5821 5822 5814 5798 5797 5809 5809 5811 5816 5820 5818 5814 5810 5807 5811 5808 5811 5811 5809 5804 5798 5792 5785 5782 5780 5777 5775 5773 5772 5771 5770 5769 5768 5768 5768 5767 5767 5767 5766 5767 5767 5768 5767 5766 5766 5764 5763
5824 5824 5820 5820 5809 5800 5799 5810 5812 5816 5820 5818 5814 5815 5811 5806 5810 5811 5812 5811 5807 5802 5797 5790 5784 5781 5778 5776 5774 5772 5770 5769 5768 5767 5766 5766 5765 5765 5765 5764 5764 5764 5764 5764 5763 5763 5762 5762 5761
5823 5822 5822 5813 5801 5807 5810 5814 5816 5814 5816 5819 5816 5809 5812 5815 5816 5816 5814 5810 5805 5800 5797 5789 5782 5779 5777 5774 5772 5770 5768 5767 5766 5765 5764 5764 5763 5763 5762 5762 5761 5761 5761 5761 5760 5760 5760 5759 5758
5824 5820 5810 5803 5804 5811 5818 5820 5820 5814 5813 5815 5815 5806 5805 5814 5819 5816 5812 5808 5804 5801 5797 5790 5781 5778 5775 5773 5770 5769 5767 5765 5764 5763 5762 5761 5761 5760 5760 5760 5759 5759 5759 5758 5758 5757 5757 5757 5756
5819 5818 5803 5795 5800 5811 5818 5822 5820 5816 5814 5815 5813 5807 5805 5814 5813 5812 5811 5808 5805 5801 5796 5788 5780 5777 5774 5771 5769 5767 5766 5764 5763 5761 5760 5759 5759 5759 5758 5758 5758 5757 5757 5756 5755 5755 5755 5754 5754
5813 5810 5801 5800 5800 5805 5814 5823 5818 5815 5812 5814 5819 5808 5806 5809 5812 5812 5810 5808 5804 5801 5796 5790 5785 5778 5773 5770 5768 5766 5764 5763 5761 5760 5758 5758 5757 5757 5756 5757 5757 5756 5755 5754 5753 5753 5752 5752 5752
5820 5812 5801 5801 5799 5802 5816 5821 5821 5818 5815 5823 5823 5809 5805 5809 5812 5811 5808 5805 5802 5799 5795 5792 5788 5783 5778 5774 5768 5765 5763 5761 5759 5758 5757 5756 5756 5756 5756 5757 5756 5754 5753 5753 5752 5751 5751 5750 5750
5819 5804 5796 5801 5802 5806 5816 5815 5820 5826 5820 5820 5823 5821 5819 5816 5812 5806 5801 5799 5797 5794 5793 5791 5788 5784 5780 5777 5770 5767 5763 5761 5759 5758 5756 5756 5758 5757 5756 5755 5753 5752 5751 5751 5750 5749 5749 5748 5748
5810 5798 5802 5811 5814 5812 5814 5814 5816 5817 5813 5812 5815 5817 5817 5812 5808 5803 5799 5795 5793 5791 5791 5790 5787 5783 5780 5776 5771 5769 5767 5763 5761 5759 5757 5756 5755 5754 5754 5751 5750 5750 5749 5749 5748 5748 5748 5748 5749
5808 5803 5809 5812 5816 5815 5813 5815 5819 5813 5808 5815 5814 5813 5812 5808 5805 5803 5801 5798 5795 5793 5790 5789 5785 5781 5779 5776 5772 5769 5767 5763 5761 5758 5756 5755 5754 5753 5752 5752 5750 5750 5749 5750 5748 5749 5750 5749 5748
5803 5805 5809 5812 5815 5813 5812 5815 5814 5814 5817 5826 5826 5820 5813 5807 5806 5804 5802 5799 5796 5793 5789 5787 5784 5780 5777 5775 5772 5768 5766 5763 5761 5757 5754 5754 5753 5751 5751 5749 5749 5749 5749 5748 5749 5748 5748 5747 5746
5798 5802 5808 5812 5813 5814 5813 5811 5811 5814 5823 5827 5824 5817 5812 5810 5809 5808 5806 5802 5797 5792 5789 5787 5783 5778 5774 5771 5769 5768 5765 5763 5760 5756 5754 5752 5751 5750 5749 5747 5746 5747 5747 5747 5746 5746 5745 5745 5745
5801 5802 5805 5809 5810 5812 5808 5810 5809 5813 5821 5819 5815 5812 5812 5810 5809 5806 5802 5798 5795 5792 5789 5787 5782 5777 5773 5770 5767 5765 5764 5760 5759 5755 5752 5749 5749 5747 5746 5745 5744 5744 5744 5744 5743 5742 5742 5743 5742
5800 5794 5798 5804 5807 5810 5808 5800 5806 5817 5818 5813 5812 5811 5810 5810 5808 5804 5802 5798 5795 5792 5789 5785 5781 5777 5772 5770 5767 5765 5763 5760 5757 5754 5750 5747 5747 5745 5744 5743 5742 5741 5741 5740 5740 5740 5740 5740 5740
5792 5788 5785 5798 5803 5806 5798 5791 5809 5818 5813 5809 5810 5809 5807 5807 5807 5805 5803 5798 5795 5792 5787 5784 5782 5777 5772 5768 5765 5764 5762 5758 5755 5752 5749 5746 5744 5743 5742 5742 5741 5738 5739 5739 5738 5738 5737 5736 5737
5782 5778 5782 5790 5799 5801 5796 5793 5808 5815 5810 5807 5807 5807 5806 5805 5804 5804 5803 5799 5795 5791 5786 5781 5779 5775 5772 5767 5764 5762 5759 5756 5754 5751 5749 5745 5742 5741 5740 5739 5738 5737 5738 5737 5737 5736 5735 5733 5733
5774 5778 5779 5782 5793 5793 5790 5793 5803 5809 5807 5806 5806 5806 5804 5803 5803 5804 5802 5799 5795 5790 5785 5781 5777 5773 5770 5766 5762 5760 5757 5756 5753 5750 5746 5744 5741 5739 5739 5738 5736 5737 5736 5734 5733 5732 5731 5731 5731
5778 5775 5774 5781 5791 5786 5784 5787 5796 5803 5803 5803 5804 5804 5803 5802 5805 5804 5801 5798 5793 5788 5783 5779 5775 5771 5768 5765 5761 5758 5756 5754 5752 5749 5745 5743 5740 5739 5738 5738 5735 5735 5733 5731 5731 5731 5729 5729 5729
5769 5766 5770 5777 5784 5780 5779 5783 5794 5799 5799 5801 5801 5801 5801 5801 5800 5798 5797 5795 5790 5786 5782 5778 5774 5771 5768 5764 5761 5759 5756 5754 5751 5748 5744 5742 5740 5738 5738 5735 5735 5733 5731 5729 5729 5728 5728 5727 5727
5761 5763 5766 5767 5775 5779 5775 5775 5785 5794 5798 5799 5800 5802 5802 5800 5797 5795 5793 5792 5789 5785 5782 5779 5774 5770 5766 5763 5761 5757 5753 5751 5749 5745 5743 5741 5739 5737 5735 5734 5733 5732 5731 5729 5727 5726 5725 5723 5725
5754 5768 5766 5764 5761 5765 5770 5761 5778 5787 5788 5791 5794 5797 5798 5799 5798 5795 5792 5790 5788 5786 5783 5778 5773 5769 5765 5762 5759 5755 5751 5748 5746 5744 5742 5739 5737 5735 5733 5732 5731 5729 5730 5727 5727 5726 5725 5722 5721
5759 5767 5763 5761 5759 5759 5764 5758 5774 5784 5779 5785 5790 5793 5795 5797 5796 5794 5792 5790 5788 5786 5783 5778 5772 5767 5764 5760 5756 5752 5750 5748 5747 5744 5739 5737 5735 5733 5732 5730 5729 5727 5727 5725 5724 5723 5723 5723 5721
5758 5755 5753 5755 5756 5740 5756 5753 5762 5779 5779 5784 5788 5790 5791 5793 5794 5792 5791 5789 5786 5785 5781 5776 5770 5765 5762 5758 5755 5751 5747 5745 5742 5739 5737 5735 5733 5732 5730 5729 5727 5726 5725 5723 5722 5722 5721 5720 5719
5747 5740 5731 5730 5733 5739 5759 5750 5761 5780 5784 5785 5785 5787 5788 5789 5789 5788 5786 5783 5781 5780 5777 5773 5767 5762 5760 5757 5753 5750 5746 5742 5738 5737 5734 5732 5731 5730 5727 5727 5724 5724 5722 5721 5720 5719 5718 5718 5716
5740 5741 5729 5723 5731 5745 5748 5745 5766 5779 5781 5782 5783 5784 5783 5782 5784 5783 5782 5780 5777 5775 5772 5769 5764 5760 5757 5754 5751 5747 5744 5742 5739 5735 5734 5731 5730 5728 5726 5724 5722 5721 5720 5719 5718 5718 5717 5715 5714
5735 5738 5750 5740 5737 5736 5746 5752 5763 5772 5771 5774 5776 5776 5776 5776 5777 5777 5776 5775 5773 5770 5767 5765 5761 5757 5754 5751 5747 5744 5741 5739 5736 5733 5731 5730 5727 5727 5724 5722 5720 5718 5717 5716 5715 5715 5713 5712 5712
5743 5742 5735 5729 5716 5718 5734 5740 5750 5758 5762 5767 5769 5769 5771 5771 5771 5770 5769 5769 5769 5767 5763 5760 5757 5753 5751 5748 5744 5742 5738 5736 5733 5731 5727 5727 5725 5723 5721 5719 5717 5715 5714 5713 5712 5712 5710 5709 5709
5725 5727 5728 5730 5733 5721 5721 5739 5761 5758 5761 5762 5764 5766 5766 5765 5765 5764 5763 5763 5762 5761 5759 5755 5752 5749 5746 5743 5740 5737 5735 5732 5730 5728 5726 5723 5721 5719 5717 5716 5714 5713 5711 5710 5708 5708 5707 5705 5705
5728 5726 5723 5714 5715 5723 5726 5736 5758 5758 5761 5760 5760 5760 5760 5760 5761 5759 5757 5756 5755 5753 5752 5749 5747 5745 5742 5740 5735 5732 5730 5728 5725 5724 5722 5720 5717 5716 5715 5713 5711 5710 5709 5707 5705 5704 5703 5702 5701